Погода в Сертолово

Россия / Санкт-Петербург и Ленинградская область     60°08′29″N   30°12′42″E
темп.,
°C
ветер,
м/с
пор.,
м/с
влажн.,
%
обл.,
%
осадки,
мм/ч
давл.,
гПа
погр.,
м
3 марта, ср
ср300:00−1зсз410880 0.0 1017432
03:00−1зсз512900 0.0 1017451
06:00−2зсз4119259 0.0 1015394
09:00−2з4109146 0.0 1014453
12:000з5118387 0.0 1012576
15:00+1з6128094 0.0 1009908
18:000з61291100 0.0 1005794
21:00+1зсз51383100 0.2 1004903
4 марта, чт
чт400:00−2зсз3118171 0.0 1003782
03:00−4сз4107535 0.0 1004532
06:00−5сз39810 0.0 1003389
09:00−5сз37840 0.0 1003354
12:00−3ссз247614 0.0 1003612
15:00−3ссз368457 0.2 1004619
18:00−4ссз4782100 0.3 1004787
21:00−5ссз497897 0.3 1005688
5 марта, пт
пт500:00−7ссз38841 0.0 1006505
03:00−7сз378539 0.0 1007571
06:00−8сз378697 0.0 1008566
09:00−8сз368599 0.1 1009576
12:00−6с3574100 0.1 1011740
15:00−5с245281 0.1 10131117
18:00−5сз256583 0.0 1014799
21:00−7сз378491 0.0 1015539
6 марта, сб
сб600:00−8сз379035 0.0 1016325
03:00−8зсз269218 0.0 1016229
06:00−9з27900 0.0 1015235
09:00−8зюз410850 0.0 1014483
12:00−4зюз5106974 0.0 10111003
15:00−5ююз7139087 0.5 1005888
18:00−3юз81694100 2.4 9981272
21:00−1зюз91695100 7.8 9921000
7 марта, вс
вс700:00−1зюз71495100 2.6 986881
03:00−3зсз91482100 5.0 9851071
06:00−10з6166537 0.0 9861414
09:00−10з6136719 0.0 9851092
12:00−8з51084100 0.2 985958
15:00−6с5988100 0.8 988964
18:00−8с61288100 0.5 9931201
21:00−9с61389100 0.9 9981241